CW8847 Weather Reports


time (UTC)temp
F
wind
direction
speed
knots
gust
knots
rain 1hr
in
rain 24hr
in
rain mn
in
humidity
%
barometer
mb
20260505064626 59 149 1.7 5.2 0.00 0.00 0.00 58 1006.6
20260505063623 59 149 2.6 5.2 0.00 0.00 0.00 57 1006.5
20260505062623 59 149 1.7 7.8 0.00 0.00 0.00 59 1006.3
20260505061623 59 117 2.6 3.5 0.00 0.00 0.00 58 1006.3
20260505060615 60 117 1.7 7.0 0.00 0.00 0.00 56 1006.2
20260505055628 60 114 6.1 7.8 0.00 0.00 0.00 54 1006.0
20260505054628 61 109 6.1 7.0 0.00 0.00 0.00 54 1006.0
20260505053649 62 296 1.7 6.1 0.00 0.00 0.00 47 1006.0
20260505052627 63 307 1.7 5.2 0.00 0.00 0.00 46 1005.9
20260505051631 64 308 0.9 3.5 0.00 0.00 0.00 41 1005.7
20260505050630 64 308 0.0 1.7 0.00 0.00 0.00 42 1005.7
20260505041621 62 302 4.3 6.1 0.00 0.00 0.00 48 1005.5
20260505040624 63 302 5.2 7.0 0.00 0.00 0.00 48 1005.3
20260505035635 63 304 2.6 5.2 0.00 0.00 0.00 45 1005.2
20260505034634 64 196 3.5 4.3 0.00 0.00 0.00 44 1005.0
20260505033632 64 191 0.0 2.6 0.00 0.00 0.00 43 1004.9
20260505032633 64 191 0.9 4.3 0.00 0.00 0.00 41 1004.7
20260505031633 64 191 1.7 2.6 0.00 0.00 0.00 43 1004.6
20260505030617 65 191 2.6 4.3 0.00 0.00 0.00 43 1004.6
20260505025631 65 187 1.7 4.3 0.00 0.00 0.00 41 1004.5
20260505024630 65 184 0.9 4.3 0.00 0.00 0.00 43 1004.4
20260505023630 65 184 1.7 3.5 0.00 0.00 0.00 44 1004.3
20260505022628 66 184 0.0 0.0 0.00 0.00 0.00 41 1004.2
20260505021628 67 184 0.0 5.2 0.00 0.00 0.00 38 1004.1
20260505020628 67 182 0.9 3.5 0.00 0.00 0.00 35 1004.0
20260505015622 68 182 1.7 3.5 0.00 0.00 0.00 34 1003.9
20260505014619 68 182 0.9 4.3 0.00 0.00 0.00 33 1003.8
20260505013619 68 182 1.7 3.5 0.00 0.00 0.00 33 1003.8
20260505012619 69 183 1.7 3.5 0.00 0.00 0.00 34 1003.8
20260505011617 70 182 1.7 3.5 0.00 0.00 0.00 31 1003.8
20260505010616 71 182 3.5 6.1 0.00 0.00 0.00 28 1003.8
20260505005630 71 113 1.7 5.2 0.00 0.00 0.00 25 1003.9
20260505004629 71 70 0.9 7.0 0.00 0.00 0.00 28 1004.0
20260505003632 71 68 7.0 13.0 0.00 0.00 0.00 27 1003.9
20260505002634 72 60 2.6 7.8 0.00 0.00 0.00 25 1004.1
20260505001632 72 65 5.2 9.6 0.00 0.00 0.00 26 1004.1
20260505000633 70 19 10.4 18.2 0.00 0.00 0.00 28 1004.1
20260504235621 70 9 18.2 23.5 0.00 0.00 0.00 28 1003.9
20260504234619 70 32 18.2 24.3 0.00 0.00 0.00 27 1004.0
20260504233618 72 21 17.4 22.6 0.00 0.00 0.00 25 1004.0
20260504232641 71 24 13.0 19.1 0.00 0.00 0.00 26 1004.1
20260504231622 72 28 12.2 20.0 0.00 0.00 0.00 25 1004.2
20260504230621 74 51 12.2 18.2 0.00 0.00 0.00 24 1004.1
20260504225634 75 176 4.3 7.0 0.00 0.00 0.00 21 1004.2
20260504224634 75 275 1.7 7.0 0.00 0.00 0.00 20 1004.3
20260504223634 74 236 8.7 12.2 0.00 0.00 0.00 21 1004.2
20260504222654 74 205 6.1 9.6 0.00 0.00 0.00 23 1004.2
20260504221632 74 221 2.6 8.7 0.00 0.00 0.00 22 1004.3
20260504220617 74 275 3.5 10.4 0.00 0.00 0.00 23 1004.4
20260504215632 74 227 5.2 11.3 0.00 0.00 0.00 23 1004.5
20260504214631 74 215 5.2 8.7 0.00 0.00 0.00 23 1004.7
20260504213630 74 189 7.0 12.2 0.00 0.00 0.00 25 1004.8
20260504212619 73 163 7.0 12.2 0.00 0.00 0.00 27 1005.0